This is the latest recevied weather packets stored in our database for station/object dl1wer-13. If no packets are shown the sender has not sent any weather packets the latest 10 day(s).
| Time | Temp. | Humidity | Pressure | Rain* | Wind** | Luminosity | Snow |
|---|---|---|---|---|---|---|---|
| 1777489817 | 12.78° C | 32% | 1047.7 hPa | 0 mm | - | - | - |
| 1777489218 | 12.78° C | 31% | 1047.4 hPa | 0 mm | - | - | - |
| 1777488616 | 13.33° C | 32% | 1047.4 hPa | 0 mm | - | - | - |
| 1777488016 | 13.33° C | 31% | 1047 hPa | 0 mm | - | - | - |
| 1777487418 | 13.89° C | 31% | 1047.1 hPa | 0 mm | - | - | - |
| 1777486817 | 13.89° C | 31% | 1047 hPa | 0 mm | - | - | - |
| 1777486217 | 14.44° C | 30% | 1046.7 hPa | 0 mm | - | - | - |
| 1777485617 | 15° C | 30% | 1046.8 hPa | 0 mm | - | - | - |
| 1777485017 | 15.56° C | 30% | 1046.5 hPa | 0 mm | - | - | - |
| 1777484417 | 15.56° C | 30% | 1046.5 hPa | 0 mm | - | - | - |
| 1777483817 | 15.56° C | 30% | 1046.4 hPa | 0 mm | - | - | - |
| 1777483218 | 15.56° C | 31% | 1046.3 hPa | 0 mm | - | - | - |
| 1777482617 | 16.11° C | 32% | 1046.3 hPa | 0 mm | - | - | - |
| 1777482017 | 16.11° C | 32% | 1046.4 hPa | 0 mm | - | - | - |
| 1777481416 | 16.67° C | 33% | 1046.2 hPa | 0 mm | - | - | - |
| 1777480817 | 16.67° C | 33% | 1046.2 hPa | 0 mm | - | - | - |
| 1777480217 | 17.22° C | 33% | 1046 hPa | 0 mm | - | - | - |
| 1777479617 | 17.22° C | 32% | 1046 hPa | 0 mm | - | - | - |
| 1777479016 | 17.78° C | 30% | 1045.8 hPa | 0 mm | - | - | - |
| 1777478416 | 17.78° C | 30% | 1045.7 hPa | 0 mm | - | - | - |
| 1777477817 | 17.78° C | 28% | 1045.8 hPa | 0 mm | - | - | - |
| 1777477217 | 17.78° C | 28% | 1045.8 hPa | 0 mm | - | - | - |
| 1777476616 | 17.78° C | 27% | 1046.1 hPa | 0 mm | - | - | - |
| 1777476017 | 17.78° C | 27% | 1045.9 hPa | 0 mm | - | - | - |
| 1777475416 | 17.78° C | 30% | 1045.9 hPa | 0 mm | - | - | - |
* Rain latest hour (hover to see other rain measurements)
** Current wind speed in m/s (hover to see current wind gust speed)